Location: Gro�sch�nbrunn
(49.5760°N, 11.8868°E)
Time: 15:06:59
(UTC+00:00)

ISS - Pass Details

Date: 25 November 2020
Orbit: 418 x 419 km, 51.6° (Epoch: 17 January)

Event Time Altitude Azimuth Distance (km) Brightness Sun altitude
Rises 17:47:08 0° 261° (W) 2,362 1.5 -23.4°
Reaches altitude 10° 17:49:14 10° 264° (W) 1,499 0.1 -23.7°
Enters shadow 17:51:33 40° 278° (W) 633 -2.4 -24.1°
